Погода в Сосновке

Россия / Тамбовская область     52°15′19″N   41°01′03″E
темп.,
°C
ветер,
м/с
пор.,
м/с
влажн.,
%
обл.,
%
осадки,
мм/ч
давл.,
гПа
погр.,
м
8 августа, пн
пн800:00+22вюв223748 0.0 101822
03:00+20юв224191 0.0 101813
06:00+21ююв2245100 0.0 101933
09:00+26в1137100 0.0 1019331
12:00+30всв1228100 0.0 10191222
15:00+31ссз2323100 0.0 10183101
18:00+29ссз353522 0.0 1018122
21:00+23ююв124051 0.0 101914
9 августа, вт
вт900:00+25в333236 0.0 101830
03:00+20юв234415 0.0 101924
06:00+20юв2251100 0.0 101913
09:00+26ю234048 0.0 1019295
12:00+30ююз22307 0.0 10181215
15:00+32зюз232413 0.0 10173355
18:00+30зсз223313 0.0 101733
21:00+26з113499 0.0 101711
10 августа, ср
ср1000:00+24вюв3337100 0.0 101730
03:00+21зсз224257 0.0 101612
06:00+19ссв345599 0.0 101760
09:00+25ссв114276 0.0 1017304
12:00+30с1134100 0.0 1017900
15:00+31ссз3331100 0.0 10161725
18:00+27ссв61048100 0.0 1017576
21:00+21ссв71367100 0.0 1019415
11 августа, чт
чт1100:00+20ссв61271100 0.0 1019411
03:00+19ссв71271100 0.0 1020437
06:00+18св6126888 0.0 1021470
09:00+21св795174 0.1 1022679
12:00+26св66376 0.1 10211099
15:00+27ссв66326 0.1 10211349
18:00+26ссв46375 0.0 1021388
21:00+20св511470 0.0 1022210
12 августа, пт
пт1200:00+18всв512540 0.0 1023285
03:00+16всв411610 0.0 1024229
06:00+15всв49660 0.0 1025203
09:00+22всв45462 0.0 1025648
12:00+26св44325 0.0 10241373
15:00+28св44270 0.0 10221590
18:00+26ссв353637 0.0 1022161
21:00+20св47460 0.0 102382